Simultaneous Nadir Overpasses (SNOs) Predictions

Prediction of SNOs between GOES-14 and AQUA Satellite Orbit:

Table of predicted SNOs for the next 14.0 days since TLE Epoch: 9/21/2024
Index Date Time (GOES-14) GOES-14 Lat,Lon AQUA Lat,Lon Distance(km) Time Diff (sec)
1 09/22/2024 09:33:44 -0.04,-108.48 -0.03,-108.65 19.08 80
2 09/24/2024 09:13:26 -0.05,-108.48 -0.95,-104.33 472.17 80
3 09/24/2024 21:33:25 0.05,-108.42 -0.13,-109.16 85.08 80
4 09/26/2024 21:18:26 0.06,-108.43 0.82,-104.85 407.04 80
5 09/27/2024 09:38:17 -0.06,-108.50 0.16,-109.65 130.83 80
6 09/29/2024 09:17:56 -0.06,-108.51 -0.75,-105.33 362.22 80
7 09/29/2024 21:37:55 0.06,-108.44 -0.28,-110.16 195.11 80
8 10/01/2024 21:22:52 0.07,-108.46 0.61,-105.82 299.34 80
9 10/02/2024 09:42:41 -0.07,-108.54 0.38,-110.63 237.37 80
10 10/04/2024 09:22:18 -0.07,-108.55 -0.54,-106.29 257.45 80
11 10/04/2024 21:42:15 0.07,-108.48 -0.50,-111.12 300.06 80
